SL-8 DEB, 1591

Orbit data source: Space-Track

SL-8 DEB, 1591 is space debris in LEO originally from a launch on Sat, 18 Sep 1965 UTC launched from the Tyuratam Missile And Space Complex (TTMTR). Debris objects in space refer to the collection of defunct objects orbiting the Earth. Examples of debris include non-operational satellites, rocket bodies, and fragments generated from explosions, collisions, or faulty payload assembly.

Loading next visibility...
Identifier
1591, 1965-073H
Orbit
LEO
Country
Flag of CISCIS
Related business
Manufacturer
Unknown
Mission
Spacecraft
Bus & Motor
Unknown
Mass
Unknown
Launch date (UTC)
1965-09-18 (60 years ago)
Launch vehicle
Unknown
Launch site
Tyuratam Missile And Space Complex (TTMTR)
Object type
Payload
Rocket body
Debris
Shape & HBR
Unknown shape, 0.1 m
Radar Cross Section
Small (<0.1 m²)

Expand to show TLE details & history
Last TLE update: 16 hours ago

TLE from 16 hours ago
0 SL-8 DEB
1  1591U 65073H   25290.88904398  .00000176  00000-0  18651-2 0  9991
2  1591  56.0564  74.4939 0155380   9.7086 157.0593 12.42945660718591
Epoch: 2025-10-17T21:20Z
TLE epoch observation values (Epoch: 2025-10-17T21:20:13.399Z)
Latitude
10.36677°
Longitude
-99.22837°
Altitude
1,607.381 km
Speed
7.017 km/s
True Right ascension
16h 29m 49s
True Declination
10° 18' 45"
Sunlit
Object was in daylight at epoch
Visualization orbit readout
Latitude
Unknown
Longitude
Unknown
Altitude
Unknown
Speed
Unknown
Apparent Right ascension
Unknown
Apparent Declination
Unknown
Sunlit
N/A
Visualization observer readout
Local Sidereal Time
08:38:34
Azimuth
Unknown
Elevation
Unknown
Doppler factor
Unknown
Orbital elements
Apogee altitude
1,616.281 km
Perigee altitude
1,371.648 km
Semi-major axis
7,872.102 km
Eccentricity
0.01554
Inclination
56.0564°
RAAN
74.4939°
Arg. of periapsis
9.7086°
True anomaly
157.74109°
Mean anomaly
157.0593°
Eccentric anomaly
157.4014°
Mean motion
3.10747 °/min
Orbital period
115.85 mins
BSTAR
0.0018651
Loading maneuver chart data...
Computing Atmospheric mass density...
Loading historical data...
Loading historical data...
Loading historical data...
Loading historical data...
Loading historical data...
Loading historical data...
Loading historical data...

Documentation

Showing up to 5 results
|